| time (UTC) | temp C | wind direction | speed KPH | gust KPH | rain 1hr cm | rain 24hr cm | rain mn cm | humidity % | barometer mb |
| 20260906123312 | 18 | 23 | 1.6 | 3.2 | 0.00 | 0.51 | 0.00 | 100 | 1017.3 |
| 20260906122905 | 18 | 146 | 1.6 | 3.2 | 0.00 | 0.51 | 0.00 | 100 | 1017.3 |
| 20260906122358 | 18 | 146 | 0.0 | 1.6 | 0.00 | 0.51 | 0.00 | 100 | 1017.2 |
| 20260906121834 | 18 | 278 | 0.0 | 0.0 | 0.00 | 0.51 | 0.00 | 100 | 1017.0 |
| 20260906121329 | 18 | 278 | 0.0 | 0.0 | 0.00 | 0.51 | 0.00 | 100 | 1017.0 |
| 20260906120902 | 18 | 278 | 0.0 | 0.0 | 0.00 | 0.51 | 0.00 | 100 | 1017.0 |
| 20260906115830 | 17 | 278 | 0.0 | 0.0 | 0.00 | 0.51 | 0.00 | 100 | 1016.9 |
| 20260906115323 | 17 | 278 | 0.0 | 0.0 | 0.00 | 0.51 | 0.00 | 99 | 1016.8 |
| 20260906114813 | 17 | 278 | 0.0 | 0.0 | 0.00 | 0.51 | 0.00 | 99 | 1016.8 |
| 20260906113825 | 17 | 278 | 0.0 | 0.0 | 0.00 | 0.51 | 0.00 | 99 | 1016.7 |
| 20260906113359 | 17 | 278 | 0.0 | 0.0 | 0.00 | 0.51 | 0.00 | 99 | 1016.7 |
| 20260906112852 | 17 | 278 | 0.0 | 0.0 | 0.00 | 0.51 | 0.00 | 99 | 1016.6 |
| 20260906112344 | 17 | 278 | 0.0 | 0.0 | 0.00 | 0.51 | 0.00 | 100 | 1016.6 |
| 20260906111838 | 17 | 278 | 0.0 | 0.0 | 0.00 | 0.51 | 0.00 | 100 | 1016.6 |
| 20260906111331 | 17 | 279 | 0.0 | 0.0 | 0.00 | 0.51 | 0.00 | 100 | 1016.5 |
| 20260906110903 | 17 | 278 | 0.0 | 0.0 | 0.00 | 0.51 | 0.00 | 100 | 1016.4 |
| 20260906110356 | 17 | 278 | 0.0 | 0.0 | 0.00 | 0.51 | 0.00 | 99 | 1016.4 |
| 20260906105834 | 17 | 278 | 0.0 | 0.0 | 0.00 | 0.51 | 0.00 | 99 | 1016.2 |
| 20260906105407 | 17 | 278 | 0.0 | 0.0 | 0.00 | 0.51 | 0.00 | 99 | 1016.1 |
| 20260906104858 | 17 | 278 | 0.0 | 0.0 | 0.00 | 0.51 | 0.00 | 99 | 1016.2 |
| 20260906103826 | 17 | 278 | 0.0 | 0.0 | 0.00 | 0.51 | 0.00 | 99 | 1016.1 |
| 20260906103319 | 17 | 278 | 0.0 | 0.0 | 0.00 | 0.51 | 0.00 | 99 | 1016.0 |
| 20260906102813 | 17 | 278 | 0.0 | 0.0 | 0.00 | 0.51 | 0.00 | 99 | 1016.0 |
| 20260906102405 | 17 | 278 | 0.0 | 0.0 | 0.00 | 0.51 | 0.00 | 99 | 1016.0 |
| 20260906100833 | 18 | 279 | 0.0 | 0.0 | 0.00 | 0.51 | 0.00 | 100 | 1016.0 |
| 20260906100406 | 18 | 278 | 0.0 | 0.0 | 0.00 | 0.51 | 0.00 | 100 | 1015.9 |
| 20260906095859 | 17 | 278 | 0.0 | 0.0 | 0.00 | 0.51 | 0.00 | 100 | 1015.9 |
| 20260906095351 | 17 | 278 | 0.0 | 0.0 | 0.00 | 0.51 | 0.00 | 100 | 1015.8 |
| 20260906094842 | 17 | 278 | 0.0 | 0.0 | 0.00 | 0.51 | 0.00 | 100 | 1015.9 |
| 20260906094336 | 17 | 278 | 0.0 | 0.0 | 0.00 | 0.51 | 0.00 | 100 | 1015.8 |
| 20260906093829 | 17 | 278 | 0.0 | 0.0 | 0.00 | 0.51 | 0.00 | 100 | 1015.7 |
| 20260906093403 | 17 | 278 | 0.0 | 0.0 | 0.00 | 0.51 | 0.00 | 99 | 1015.6 |
| 20260906092840 | 17 | 278 | 0.0 | 0.0 | 0.00 | 0.51 | 0.00 | 99 | 1015.5 |
| 20260906091848 | 17 | 278 | 0.0 | 0.0 | 0.00 | 0.51 | 0.00 | 99 | 1015.4 |
| 20260906091341 | 17 | 278 | 0.0 | 0.0 | 0.00 | 0.51 | 0.00 | 99 | 1015.5 |
| 20260906090835 | 17 | 278 | 0.0 | 0.0 | 0.00 | 0.51 | 0.00 | 99 | 1015.5 |
| 20260906090327 | 17 | 278 | 0.0 | 0.0 | 0.00 | 0.51 | 0.00 | 99 | 1015.4 |
| 20260906085901 | 17 | 278 | 0.0 | 0.0 | 0.00 | 0.51 | 0.00 | 99 | 1015.4 |
| 20260906084326 | 17 | 278 | 0.0 | 0.0 | 0.00 | 0.51 | 0.00 | 99 | 1015.5 |
| 20260906083900 | 17 | 278 | 0.0 | 0.0 | 0.00 | 0.51 | 0.00 | 99 | 1015.6 |
| 20260906083353 | 17 | 278 | 0.0 | 0.0 | 0.00 | 0.51 | 0.00 | 99 | 1015.6 |
| 20260906082846 | 17 | 278 | 0.0 | 0.0 | 0.00 | 0.51 | 0.00 | 99 | 1015.7 |
| 20260906082339 | 17 | 278 | 0.0 | 0.0 | 0.00 | 0.51 | 0.00 | 99 | 1015.6 |
| 20260906081833 | 17 | 278 | 0.0 | 0.0 | 0.00 | 0.51 | 0.00 | 99 | 1015.6 |
| 20260906081325 | 17 | 278 | 0.0 | 0.0 | 0.00 | 0.51 | 0.00 | 99 | 1015.7 |
| 20260906080859 | 17 | 278 | 0.0 | 0.0 | 0.00 | 0.51 | 0.00 | 99 | 1015.6 |
| 20260906075851 | 17 | 278 | 0.0 | 0.0 | 0.00 | 0.51 | 0.00 | 99 | 1015.6 |
| 20260906075343 | 16 | 278 | 0.0 | 0.0 | 0.00 | 0.51 | 0.00 | 99 | 1015.5 |
| 20260906074833 | 16 | 278 | 0.0 | 0.0 | 0.00 | 0.51 | 0.00 | 99 | 1015.4 |
| 20260906074327 | 16 | 278 | 0.0 | 1.6 | 0.00 | 0.51 | 0.00 | 98 | 1015.4 |
| 20260906073819 | 16 | 278 | 0.0 | 1.6 | 0.00 | 0.51 | 0.00 | 98 | 1015.4 |
| 20260906072849 | 16 | 278 | 0.0 | 4.8 | 0.00 | 0.51 | 0.00 | 98 | 1015.4 |
| 20260906072326 | 16 | 278 | 3.2 | 4.8 | 0.00 | 0.51 | 0.00 | 98 | 1015.5 |
| 20260906070850 | 17 | 278 | 0.0 | 0.0 | 0.00 | 0.51 | 0.00 | 98 | 1015.6 |
| 20260906070343 | 17 | 278 | 0.0 | 1.6 | 0.00 | 0.51 | 0.00 | 98 | 1015.6 |
| 20260906065836 | 17 | 278 | 0.0 | 1.6 | 0.00 | 0.51 | 0.00 | 98 | 1015.5 |
| 20260906065329 | 17 | 278 | 0.0 | 0.0 | 0.00 | 0.51 | 0.00 | 99 | 1015.6 |
| 20260906064902 | 17 | 278 | 0.0 | 0.0 | 0.00 | 0.51 | 0.00 | 99 | 1015.6 |
| 20260906064355 | 17 | 278 | 0.0 | 0.0 | 0.00 | 0.51 | 0.00 | 98 | 1015.9 |
| 20260906062903 | 17 | 278 | 0.0 | 3.2 | 0.00 | 0.51 | 0.00 | 97 | 1016.0 |
| 20260906062356 | 17 | 278 | 1.6 | 3.2 | 0.00 | 0.51 | 0.00 | 97 | 1015.9 |
| 20260906061848 | 17 | 278 | 0.0 | 0.0 | 0.00 | 0.51 | 0.00 | 97 | 1015.8 |
| 20260906061342 | 17 | 278 | 0.0 | 1.6 | 0.00 | 0.51 | 0.00 | 96 | 1015.9 |
| 20260906060834 | 17 | 278 | 0.0 | 1.6 | 0.00 | 0.51 | 0.00 | 96 | 1016.0 |
| 20260906060327 | 18 | 278 | 0.0 | 4.8 | 0.00 | 0.51 | 0.00 | 98 | 1016.1 |
| 20260906055824 | 18 | 8 | 1.6 | 4.8 | 0.00 | 0.51 | 0.00 | 99 | 1016.2 |
| 20260906054812 | 18 | 327 | 0.0 | 0.0 | 0.00 | 0.51 | 0.00 | 98 | 1016.2 |
| 20260906054325 | 18 | 327 | 0.0 | 0.0 | 0.00 | 0.51 | 0.00 | 98 | 1016.3 |
| 20260906053818 | 18 | 327 | 0.0 | 0.0 | 0.00 | 0.51 | 0.00 | 98 | 1016.2 |
| 20260906053331 | 18 | 327 | 0.0 | 0.0 | 0.00 | 0.51 | 0.00 | 98 | 1016.2 |
| 20260906052823 | 18 | 327 | 0.0 | 0.0 | 0.00 | 0.51 | 0.00 | 98 | 1016.2 |
| 20260906050825 | 17 | 327 | 0.0 | 0.0 | 0.00 | 0.51 | 0.00 | 98 | 1016.3 |
| 20260906050319 | 17 | 327 | 0.0 | 0.0 | 0.00 | 0.51 | 0.00 | 98 | 1016.3 |
| 20260906045831 | 17 | 327 | 0.0 | 0.0 | 0.00 | 0.51 | 0.00 | 98 | 1016.2 |
| 20260906044827 | 17 | 327 | 0.0 | 0.0 | 0.00 | 0.51 | 0.00 | 97 | 1016.1 |
| 20260906044319 | 17 | 327 | 0.0 | 0.0 | 0.00 | 0.51 | 0.00 | 97 | 1016.1 |
| 20260906043913 | 17 | 327 | 0.0 | 0.0 | 0.00 | 0.51 | 0.00 | 97 | 1016.2 |
| 20260906042815 | 17 | 327 | 0.0 | 0.0 | 0.00 | 0.51 | 0.00 | 97 | 1016.2 |
| 20260906041322 | 17 | 327 | 0.0 | 0.0 | 0.00 | 0.51 | 0.00 | 96 | 1016.2 |
| 20260906035853 | 17 | 327 | 0.0 | 0.0 | 0.00 | 0.51 | 0.00 | 96 | 1016.6 |
| 20260906035345 | 18 | 327 | 0.0 | 0.0 | 0.00 | 0.51 | 0.51 | 96 | 1016.6 |
| 20260906034838 | 18 | 327 | 0.0 | 0.0 | 0.00 | 0.51 | 0.51 | 96 | 1016.7 |
| 20260906034331 | 18 | 327 | 0.0 | 0.0 | 0.00 | 0.51 | 0.51 | 96 | 1016.7 |
| 20260906033359 | 18 | 327 | 0.0 | 0.0 | 0.00 | 0.51 | 0.51 | 96 | 1016.7 |
| 20260906032836 | 18 | 327 | 0.0 | 0.0 | 0.00 | 0.51 | 0.51 | 96 | 1016.8 |
| 20260906031844 | 18 | 327 | 0.0 | 0.0 | 0.00 | 0.51 | 0.51 | 96 | 1016.9 |
| 20260906031338 | 18 | 327 | 0.0 | 0.0 | 0.00 | 0.51 | 0.51 | 96 | 1016.9 |
| 20260906030830 | 18 | 327 | 0.0 | 0.0 | 0.00 | 0.51 | 0.51 | 95 | 1016.8 |
| 20260906030403 | 18 | 327 | 0.0 | 0.0 | 0.00 | 0.51 | 0.51 | 96 | 1016.8 |
| 20260906025857 | 18 | 327 | 0.0 | 0.0 | 0.00 | 0.51 | 0.51 | 95 | 1016.8 |
| 20260906024906 | 18 | 327 | 0.0 | 0.0 | 0.00 | 0.51 | 0.51 | 95 | 1016.8 |
| 20260906024341 | 18 | 327 | 0.0 | 0.0 | 0.00 | 0.51 | 0.51 | 95 | 1016.8 |
| 20260906023834 | 18 | 327 | 0.0 | 0.0 | 0.00 | 0.51 | 0.51 | 95 | 1016.9 |
| 20260906023328 | 18 | 327 | 0.0 | 0.0 | 0.00 | 0.51 | 0.51 | 95 | 1016.9 |
| 20260906022336 | 19 | 327 | 0.0 | 0.0 | 0.00 | 0.51 | 0.51 | 94 | 1016.9 |
| 20260906021829 | 19 | 327 | 0.0 | 0.0 | 0.00 | 0.51 | 0.51 | 94 | 1017.0 |
| 20260906021403 | 19 | 327 | 0.0 | 0.0 | 0.00 | 0.51 | 0.51 | 94 | 1016.9 |
| 20260906020856 | 19 | 327 | 0.0 | 0.0 | 0.00 | 0.51 | 0.51 | 94 | 1017.0 |
| 20260906020333 | 19 | 327 | 0.0 | 0.0 | 0.00 | 0.51 | 0.51 | 94 | 1017.0 |
| 20260906015826 | 19 | 327 | 0.0 | 0.0 | 0.00 | 0.51 | 0.51 | 93 | 1016.9 |
| 20260906015400 | 19 | 327 | 0.0 | 1.6 | 0.00 | 0.51 | 0.51 | 93 | 1016.9 |
| 20260906014854 | 19 | 327 | 0.0 | 1.6 | 0.00 | 0.51 | 0.51 | 93 | 1016.8 |
| 20260906013821 | 20 | 327 | 0.0 | 1.6 | 0.00 | 0.51 | 0.51 | 93 | 1016.9 |
| 20260906013314 | 20 | 327 | 0.0 | 1.6 | 0.00 | 0.51 | 0.51 | 93 | 1016.8 |
| 20260906012342 | 20 | 327 | 0.0 | 3.2 | 0.00 | 0.51 | 0.51 | 92 | 1016.6 |
| 20260906011819 | 20 | 327 | 0.0 | 3.2 | 0.00 | 0.51 | 0.51 | 91 | 1016.5 |
| 20260906011351 | 20 | 327 | 0.0 | 0.0 | 0.00 | 0.51 | 0.51 | 91 | 1016.5 |
| 20260906010844 | 20 | 327 | 0.0 | 0.0 | 0.00 | 0.51 | 0.51 | 91 | 1016.4 |
| 20260906010336 | 20 | 327 | 0.0 | 0.0 | 0.00 | 0.51 | 0.51 | 90 | 1016.4 |
| 20260906005829 | 20 | 327 | 0.0 | 1.6 | 0.00 | 0.51 | 0.51 | 90 | 1016.2 |
| 20260906005402 | 20 | 327 | 0.0 | 1.6 | 0.00 | 0.51 | 0.51 | 90 | 1016.1 |
| 20260906004855 | 20 | 327 | 0.0 | 3.2 | 0.00 | 0.51 | 0.51 | 89 | 1016.1 |
| 20260906003901 | 21 | 327 | 1.6 | 3.2 | 0.00 | 0.51 | 0.51 | 88 | 1016.1 |
| 20260906003339 | 21 | 327 | 0.0 | 0.0 | 0.00 | 0.51 | 0.51 | 88 | 1016.0 |
| 20260906002831 | 21 | 327 | 0.0 | 0.0 | 0.00 | 0.51 | 0.51 | 87 | 1016.0 |
| 20260906002405 | 21 | 327 | 0.0 | 3.2 | 0.00 | 0.51 | 0.51 | 87 | 1016.0 |
| 20260906001859 | 21 | 327 | 0.0 | 4.8 | 0.00 | 0.51 | 0.51 | 87 | 1016.1 |
| 20260906001352 | 21 | 327 | 1.6 | 6.4 | 0.00 | 0.51 | 0.51 | 86 | 1016.0 |
| 20260906000841 | 21 | 318 | 1.6 | 4.8 | 0.00 | 0.51 | 0.51 | 86 | 1016.2 |
| 20260906000318 | 21 | 20 | 1.6 | 4.8 | 0.00 | 0.51 | 0.51 | 86 | 1016.0 |
| 20260905235908 | 22 | 1 | 0.0 | 3.2 | 0.00 | 0.51 | 0.51 | 86 | 1016.1 |
| 20260905235344 | 22 | 1 | 0.0 | 0.0 | 0.00 | 0.51 | 0.51 | 86 | 1016.1 |
| 20260905234351 | 22 | 1 | 0.0 | 6.4 | 0.00 | 0.51 | 0.51 | 86 | 1016.1 |
| 20260905233843 | 22 | 1 | 1.6 | 6.4 | 0.00 | 0.51 | 0.51 | 85 | 1016.1 |
| 20260905233336 | 22 | 44 | 1.6 | 3.2 | 0.00 | 0.51 | 0.51 | 85 | 1016.1 |
| 20260905232829 | 22 | 44 | 0.0 | 4.8 | 0.00 | 0.51 | 0.51 | 85 | 1016.2 |
| 20260905232403 | 22 | 44 | 0.0 | 4.8 | 0.00 | 0.51 | 0.51 | 85 | 1016.2 |
| 20260905231856 | 22 | 44 | 1.6 | 6.4 | 0.00 | 0.51 | 0.51 | 84 | 1016.1 |
| 20260905231332 | 22 | 1 | 3.2 | 6.4 | 0.00 | 0.51 | 0.51 | 83 | 1016.2 |
| 20260905230826 | 22 | 18 | 1.6 | 9.7 | 0.00 | 0.51 | 0.51 | 83 | 1016.2 |
| 20260905230400 | 23 | 354 | 6.4 | 9.7 | 0.00 | 0.51 | 0.51 | 82 | 1016.2 |
| 20260905225853 | 23 | 25 | 4.8 | 9.7 | 0.00 | 0.51 | 0.51 | 82 | 1016.2 |
| 20260905225345 | 23 | 15 | 4.8 | 14.5 | 0.00 | 0.51 | 0.51 | 81 | 1016.3 |
| 20260905224312 | 23 | 331 | 4.8 | 9.7 | 0.00 | 0.51 | 0.51 | 81 | 1016.2 |
| 20260905223906 | 23 | 360 | 6.4 | 11.3 | 0.00 | 0.51 | 0.51 | 80 | 1016.2 |
| 20260905223342 | 23 | 1 | 6.4 | 11.3 | 0.00 | 0.51 | 0.51 | 80 | 1016.1 |
| 20260905222836 | 24 | 20 | 4.8 | 9.7 | 0.00 | 0.51 | 0.51 | 80 | 1016.2 |
| 20260905222329 | 24 | 25 | 3.2 | 9.7 | 0.00 | 0.51 | 0.51 | 80 | 1016.2 |
| 20260905221903 | 24 | 295 | 1.6 | 12.9 | 0.00 | 0.51 | 0.51 | 79 | 1016.2 |
| 20260905220831 | 24 | 330 | 4.8 | 11.3 | 0.00 | 0.51 | 0.51 | 79 | 1015.9 |
| 20260905220404 | 24 | 1 | 4.8 | 11.3 | 0.00 | 0.51 | 0.51 | 78 | 1015.9 |
| 20260905215857 | 25 | 18 | 3.2 | 11.3 | 0.00 | 0.51 | 0.51 | 77 | 1015.9 |
| 20260905214848 | 25 | 345 | 3.2 | 12.9 | 0.00 | 0.51 | 0.51 | 76 | 1015.7 |
| 20260905214341 | 25 | 250 | 3.2 | 12.9 | 0.00 | 0.51 | 0.51 | 74 | 1015.6 |
| 20260905213833 | 26 | 359 | 6.4 | 11.3 | 0.00 | 0.51 | 0.51 | 73 | 1015.6 |
| 20260905213327 | 26 | 314 | 4.8 | 14.5 | 0.00 | 0.51 | 0.51 | 72 | 1015.5 |
| 20260905212820 | 26 | 218 | 3.2 | 14.5 | 0.00 | 0.51 | 0.51 | 73 | 1015.5 |
| 20260905212413 | 26 | 239 | 4.8 | 11.3 | 0.00 | 0.51 | 0.51 | 72 | 1015.5 |
| 20260905211820 | 26 | 219 | 4.8 | 9.7 | 0.00 | 0.51 | 0.51 | 73 | 1015.5 |
| 20260905211314 | 25 | 68 | 3.2 | 9.7 | 0.00 | 0.51 | 0.51 | 73 | 1015.4 |
| 20260905210907 | 25 | 319 | 6.4 | 14.5 | 0.00 | 0.51 | 0.51 | 72 | 1015.4 |
| 20260905210343 | 25 | 266 | 4.8 | 14.5 | 0.00 | 0.51 | 0.51 | 73 | 1015.4 |
| 20260905205837 | 25 | 328 | 4.8 | 16.1 | 0.00 | 0.51 | 0.51 | 73 | 1015.4 |
| 20260905205330 | 25 | 148 | 4.8 | 17.7 | 0.00 | 0.51 | 0.51 | 74 | 1015.4 |
| 20260905203833 | 26 | 25 | 6.4 | 14.5 | 0.00 | 0.51 | 0.51 | 72 | 1015.3 |
| 20260905203321 | 26 | 14 | 4.8 | 11.3 | 0.00 | 0.51 | 0.51 | 74 | 1015.3 |
| 20260905202815 | 26 | 1 | 4.8 | 11.3 | 0.00 | 0.51 | 0.51 | 72 | 1015.3 |
| 20260905202407 | 26 | 167 | 3.2 | 12.9 | 0.00 | 0.51 | 0.51 | 73 | 1015.4 |
| 20260905201845 | 26 | 8 | 6.4 | 14.5 | 0.00 | 0.51 | 0.51 | 73 | 1015.3 |
| 20260905201338 | 26 | 344 | 6.4 | 14.5 | 0.00 | 0.51 | 0.51 | 73 | 1015.3 |
| 20260905200830 | 25 | 342 | 6.4 | 19.3 | 0.00 | 0.51 | 0.51 | 74 | 1015.3 |
| 20260905200403 | 25 | 41 | 6.4 | 19.3 | 0.00 | 0.51 | 0.51 | 74 | 1015.3 |
| 20260905195332 | 26 | 342 | 9.7 | 20.9 | 0.00 | 0.51 | 0.51 | 73 | 1015.5 |
| 20260905194905 | 26 | 54 | 6.4 | 20.9 | 0.00 | 0.51 | 0.51 | 73 | 1015.6 |
| 20260905194356 | 26 | 356 | 4.8 | 11.3 | 0.00 | 0.51 | 0.51 | 75 | 1015.6 |
| 20260905192904 | 26 | 333 | 4.8 | 14.5 | 0.00 | 0.51 | 0.51 | 76 | 1015.8 |
| 20260905192358 | 25 | 21 | 6.4 | 11.3 | 0.00 | 0.51 | 0.51 | 78 | 1015.9 |
| 20260905191851 | 25 | 353 | 3.2 | 16.1 | 0.00 | 0.51 | 0.51 | 78 | 1016.0 |
| 20260905191344 | 25 | 224 | 6.4 | 16.1 | 0.00 | 0.51 | 0.51 | 77 | 1016.1 |
| 20260905190837 | 25 | 281 | 6.4 | 19.3 | 0.00 | 0.51 | 0.51 | 79 | 1016.1 |
| 20260905190331 | 25 | 259 | 6.4 | 19.3 | 0.00 | 0.51 | 0.51 | 76 | 1016.1 |
| 20260905184818 | 25 | 322 | 4.8 | 12.9 | 0.00 | 0.51 | 0.51 | 77 | 1016.5 |
| 20260905184350 | 25 | 27 | 6.4 | 11.3 | 0.00 | 0.51 | 0.51 | 78 | 1016.5 |
| 20260905183842 | 25 | 1 | 4.8 | 11.3 | 0.00 | 0.51 | 0.51 | 78 | 1016.6 |
| 20260905183335 | 25 | 267 | 6.4 | 11.3 | 0.00 | 0.51 | 0.51 | 78 | 1016.6 |
| 20260905182828 | 25 | 229 | 3.2 | 12.9 | 0.00 | 0.51 | 0.51 | 81 | 1016.6 |
| 20260905181836 | 25 | 1 | 3.2 | 12.9 | 0.00 | 0.51 | 0.51 | 79 | 1016.7 |
| 20260905181314 | 24 | 302 | 6.4 | 12.9 | 0.00 | 0.51 | 0.51 | 80 | 1016.7 |
| 20260905180903 | 24 | 283 | 4.8 | 11.3 | 0.00 | 0.51 | 0.51 | 80 | 1016.7 |
| 20260905180340 | 24 | 6 | 3.2 | 11.3 | 0.00 | 0.51 | 0.51 | 83 | 1016.8 |
| 20260905175832 | 24 | 135 | 1.6 | 11.3 | 0.00 | 0.51 | 0.51 | 88 | 1017.0 |
| 20260905175406 | 23 | 312 | 4.8 | 9.7 | 0.00 | 0.51 | 0.51 | 85 | 1017.1 |
| 20260905174859 | 23 | 218 | 3.2 | 11.3 | 0.00 | 0.51 | 0.51 | 86 | 1017.2 |
| 20260905174351 | 23 | 251 | 3.2 | 14.5 | 0.00 | 0.51 | 0.51 | 88 | 1017.2 |
| 20260905173844 | 23 | 352 | 4.8 | 14.5 | 0.00 | 0.51 | 0.51 | 87 | 1017.3 |
| 20260905173337 | 23 | 283 | 4.8 | 9.7 | 0.00 | 0.51 | 0.51 | 87 | 1017.3 |
| 20260905172815 | 23 | 19 | 3.2 | 9.7 | 0.00 | 0.51 | 0.51 | 89 | 1017.4 |
| 20260905172348 | 22 | 267 | 3.2 | 6.4 | 0.00 | 0.51 | 0.51 | 88 | 1017.4 |
| 20260905171841 | 22 | 255 | 3.2 | 8.0 | 0.00 | 0.51 | 0.51 | 89 | 1017.5 |
| 20260905171335 | 22 | 242 | 3.2 | 9.7 | 0.00 | 0.51 | 0.51 | 90 | 1017.4 |
| 20260905170827 | 22 | 319 | 3.2 | 8.0 | 0.00 | 0.51 | 0.51 | 90 | 1017.3 |
| 20260905165836 | 22 | 224 | 1.6 | 8.0 | 0.00 | 0.51 | 0.51 | 89 | 1017.4 |
| 20260905165314 | 22 | 283 | 0.0 | 8.0 | 0.00 | 0.51 | 0.51 | 88 | 1017.5 |
| 20260905164903 | 22 | 359 | 0.0 | 8.0 | 0.00 | 0.51 | 0.51 | 88 | 1017.5 |
| 20260905164339 | 22 | 259 | 4.8 | 9.7 | 0.00 | 0.51 | 0.51 | 90 | 1017.4 |
| 20260905163832 | 22 | 313 | 3.2 | 9.7 | 0.00 | 0.51 | 0.51 | 90 | 1017.5 |
| 20260905163325 | 22 | 277 | 4.8 | 8.0 | 0.00 | 0.51 | 0.51 | 92 | 1017.2 |
| 20260905162334 | 21 | 192 | 4.8 | 9.7 | 0.00 | 0.51 | 0.51 | 93 | 1017.1 |
| 20260905161826 | 21 | 208 | 4.8 | 12.9 | 0.00 | 0.51 | 0.51 | 94 | 1017.1 |
| 20260905161400 | 21 | 171 | 6.4 | 12.9 | 0.00 | 0.51 | 0.51 | 94 | 1017.0 |
| 20260905160853 | 21 | 191 | 8.0 | 14.5 | 0.00 | 0.51 | 0.51 | 93 | 1017.0 |
| 20260905160330 | 21 | 185 | 6.4 | 11.3 | 0.00 | 0.51 | 0.51 | 94 | 1017.3 |
| 20260905155823 | 21 | 195 | 6.4 | 11.3 | 0.00 | 0.51 | 0.51 | 94 | 1017.4 |
| 20260905154852 | 20 | 191 | 3.2 | 6.4 | 0.00 | 0.51 | 0.51 | 93 | 1017.9 |
| 20260905154343 | 20 | 235 | 3.2 | 6.4 | 0.00 | 0.51 | 0.51 | 94 | 1018.1 |
| 20260905153835 | 20 | 1 | 1.6 | 4.8 | 0.00 | 0.51 | 0.51 | 93 | 1018.2 |
| 20260905152904 | 20 | 1 | 0.0 | 8.0 | 0.00 | 0.51 | 0.51 | 95 | 1018.6 |
| 20260905152341 | 20 | 1 | 4.8 | 8.0 | 0.00 | 0.51 | 0.51 | 94 | 1018.7 |
| 20260905151337 | 20 | 18 | 3.2 | 6.4 | 0.00 | 0.51 | 0.51 | 96 | 1018.9 |
| 20260905150830 | 20 | 285 | 3.2 | 11.3 | 0.00 | 0.51 | 0.51 | 96 | 1018.7 |
| 20260905150404 | 20 | 24 | 6.4 | 11.3 | 0.13 | 0.51 | 0.51 | 96 | 1018.8 |
| 20260905145856 | 20 | 38 | 6.4 | 11.3 | 0.46 | 0.51 | 0.51 | 97 | 1019.2 |
| 20260905145349 | 20 | 351 | 3.2 | 9.7 | 0.51 | 0.51 | 0.51 | 97 | 1019.0 |
| 20260905144825 | 20 | 322 | 3.2 | 6.4 | 0.51 | 0.51 | 0.51 | 98 | 1018.9 |
| 20260905143830 | 19 | 19 | 0.0 | 3.2 | 0.51 | 0.51 | 0.51 | 97 | 1018.7 |
| 20260905143404 | 19 | 19 | 0.0 | 4.8 | 0.51 | 0.51 | 0.51 | 97 | 1018.7 |
| 20260905142857 | 19 | 19 | 1.6 | 9.7 | 0.51 | 0.51 | 0.51 | 96 | 1018.7 |
| 20260905141852 | 19 | 30 | 4.8 | 9.7 | 0.51 | 0.51 | 0.51 | 96 | 1018.9 |
| 20260905141346 | 19 | 29 | 4.8 | 16.1 | 0.51 | 0.51 | 0.51 | 95 | 1018.8 |
| 20260905140838 | 19 | 18 | 8.0 | 20.9 | 0.51 | 0.51 | 0.51 | 95 | 1018.7 |
| 20260905140316 | 19 | 32 | 9.7 | 27.4 | 0.28 | 0.28 | 0.28 | 94 | 1018.7 |
| 20260905135849 | 20 | 1 | 14.5 | 27.4 | 0.03 | 0.03 | 0.03 | 93 | 1018.9 |
| 20260905135343 | 20 | 46 | 14.5 | 30.6 | 0.00 | 0.00 | 0.00 | 91 | 1018.7 |
| 20260905134835 | 21 | 352 | 14.5 | 35.4 | 0.00 | 0.00 | 0.00 | 90 | 1018.6 |
| 20260905134326 | 22 | 12 | 14.5 | 27.4 | 0.00 | 0.00 | 0.00 | 90 | 1018.4 |
| 20260905133821 | 22 | 21 | 1.6 | 8.0 | 0.00 | 0.00 | 0.00 | 90 | 1018.0 |
| 20260905133314 | 22 | 247 | 1.6 | 4.8 | 0.00 | 0.00 | 0.00 | 90 | 1017.8 |
| 20260905132907 | 22 | 247 | 1.6 | 9.7 | 0.00 | 0.00 | 0.00 | 89 | 1017.6 |
| 20260905132343 | 22 | 234 | 4.8 | 9.7 | 0.00 | 0.00 | 0.00 | 89 | 1017.7 |
| 20260905131837 | 23 | 277 | 3.2 | 11.3 | 0.00 | 0.00 | 0.00 | 88 | 1017.7 |
| 20260905131331 | 23 | 253 | 3.2 | 11.3 | 0.00 | 0.00 | 0.00 | 89 | 1017.7 |
| 20260905130903 | 23 | 231 | 0.0 | 6.4 | 0.00 | 0.00 | 0.00 | 90 | 1017.7 |
| 20260905130357 | 23 | 231 | 1.6 | 6.4 | 0.00 | 0.00 | 0.00 | 91 | 1017.6 |
| 20260905124900 | 22 | 245 | 4.8 | 8.0 | 0.00 | 0.00 | 0.00 | 92 | 1017.6 |
| 20260905124351 | 22 | 224 | 3.2 | 8.0 | 0.00 | 0.00 | 0.00 | 93 | 1017.5 |
| 20260905123828 | 21 | 224 | 3.2 | 11.3 | 0.00 | 0.00 | 0.00 | 94 | 1017.6 |